sat.trackr.live / text

‹ back to catalog

ONEWEB-0475

NORAD 51655 · 2022-012AK

PAYLOAD ACTIVE UNKNOWN

§ Identity

Operator
Country
UK
Launch date
2022-02-10
Launch site
FRGUI
Launch vehicle
Mass (kg)
RCS (m²)

Purposes: comms

External: N2YO · Heavens-Above · Gunter

§ Orbital elements

Epoch: 2026-09-19T23:46:35.881248Z

Period
109.29 min
Inclination
87.9200°
Eccentricity
0.0002339
Mean motion
13.17648547 rev/d
Perigee alt
1,191.9 km
Apogee alt
1,195.5 km
Semi-major
7,571.9 km
B*
2.0849e-5
RAAN
347.0478°
Arg perigee
88.0861°
Mean anomaly
272.0538°
Rev number
22,617

§ Raw data

ONEWEB-04751 51655U 22012AK  26262.99069307  .00000021  00000+0  20849-4 0  99992 51655  87.9200 347.0478 0002339  88.0861 272.0538 13.17648547226172

JSON: /api/v1/satellites/51655 · /tle

For live sub-satellite position, see the globe view (requires WebGL).

§ Visibility from observer

Set your observer location to see the next 7 days of passes ≥ 10°. The values pass through the URL so the page stays shareable.

No JS? Fill the form by hand. The geolocation button needs JavaScript.